Roseau, MN

10:47 AM CDT on July 23, 2017 (GMT -0500)
Roseau Municipal-Billberg

Weather History for KROX - January, 2014

Change the Weather History Date:

Sunday, January 19, 2014

  Actual Average Record
Temperature  
Mean Temperature 16 °F -  
Max Temperature 30 °F 12 °F 37 °F (2017)
Min Temperature 3 °F -9 °F -40 °F (1970)
Degree Days  
Heating Degree Days 48    
Moisture  
Dew Point 12 °F    
Average Humidity 78    
Maximum Humidity 86    
Minimum Humidity 68    
Precipitation  
Precipitation 0.00 in - - ()
Sea Level Pressure  
Sea Level Pressure 29.56 in    
Wind  
Wind Speed 9 mph (NNE)    
Max Wind Speed 12 mph    
Max Gust Speed 18 mph    
Visibility 8 miles    
Events Snow    
Averages and records for this station are not official NWS values.
T = Trace of Precipitation, MM = Missing Value Source: NWS Daily Summary

Daily Weather History Graph

Daily Weather History Graph

Search for Another Location

Airport or City:

Trip Planner

Search our weather history database for the weather conditions in past years. The results will help you decide how hot, cold, wet, or windy it might be!

Date:

Astronomy

Jan. 19, 2014 Rise Set
Actual Time 8:07 AM CST 4:59 PM CST
Civil Twilight 7:32 AM CST 5:35 PM CST
Nautical Twilight 6:53 AM CST 6:14 PM CST
Astronomical Twilight 6:15 AM CST 6:51 PM CST
Moon 9:01 PM CST (1/19) 9:17 AM CST (1/19)
Length of Visible Light 10h 03m
Length of Day
8h 52m
Waning Gibbous, 89% of the Moon is Illuminated
Jan 19
Waning Gibbous
Jan 23
Last Quarter
Jan 30
New
Feb 6
First Quarter
Feb 14
Full

Hourly Weather History & Observations

Time (CST) Temp. Windchill Dew Point Humidity Pressure Visibility Wind Dir Wind Speed Gust Speed Precip Events Conditions
12:14 AM 30.2 °F 21.9 °F 24.8 °F 80% 29.40 in 10.0 mi West 9.2 mph 16.1 mph N/A   Clear
12:34 AM 30.2 °F 21.3 °F 24.8 °F 80% 29.39 in 10.0 mi West 10.4 mph 17.3 mph N/A   Clear
12:54 AM 30.2 °F 22.6 °F 24.8 °F 80% 29.39 in 10.0 mi West 8.1 mph - N/A   Clear
1:15 AM 28.4 °F 18.5 °F 24.8 °F 86% 29.39 in 10.0 mi West 11.5 mph 16.1 mph N/A   Clear
1:34 AM 28.4 °F 20.4 °F 23.0 °F 80% 29.39 in 10.0 mi West 8.1 mph - N/A   Clear
1:54 AM 28.4 °F 19.1 °F 23.0 °F 80% 29.40 in 10.0 mi West 10.4 mph - N/A   Clear
2:14 AM 26.6 °F 17.5 °F 21.2 °F 80% 29.40 in 10.0 mi WNW 9.2 mph - N/A   Clear
2:34 AM 26.6 °F 19.1 °F 21.2 °F 80% 29.42 in 10.0 mi WNW 6.9 mph - N/A   Clear
2:54 AM 26.6 °F 19.1 °F 21.2 °F 80% 29.43 in 10.0 mi WNW 6.9 mph - N/A   Clear
3:14 AM 24.8 °F 17.9 °F 19.4 °F 80% 29.43 in 10.0 mi WNW 5.8 mph - N/A   Scattered Clouds
3:34 AM 24.8 °F 17.9 °F 19.4 °F 80% 29.44 in 10.0 mi WNW 5.8 mph - N/A   Mostly Cloudy
3:54 AM 24.8 °F 17.9 °F 19.4 °F 80% 29.45 in 10.0 mi WNW 5.8 mph - N/A   Mostly Cloudy
4:14 AM 26.6 °F 16.8 °F 21.2 °F 80% 29.45 in 10.0 mi North 10.4 mph 18.4 mph N/A   Overcast
4:34 AM 26.6 °F 16.2 °F 21.2 °F 80% 29.46 in 10.0 mi North 11.5 mph - N/A   Overcast
4:55 AM 26.6 °F 17.5 °F 21.2 °F 80% 29.45 in 10.0 mi NNW 9.2 mph - N/A   Mostly Cloudy
5:14 AM 23.0 °F 15.8 °F 17.6 °F 80% 29.46 in 10.0 mi NW 5.8 mph - N/A   Scattered Clouds
5:34 AM 24.8 °F 19.1 °F 19.4 °F 80% 29.46 in 10.0 mi WNW 4.6 mph - N/A   Overcast
5:55 AM 24.8 °F 17.9 °F 19.4 °F 80% 29.47 in 10.0 mi NW 5.8 mph - N/A   Overcast
6:14 AM 24.8 °F 14.0 °F 19.4 °F 80% 29.48 in 10.0 mi NNW 11.5 mph - N/A   Overcast
6:34 AM 24.8 °F 14.6 °F 19.4 °F 80% 29.48 in 10.0 mi NNW 10.4 mph - N/A   Overcast
6:55 AM 24.8 °F 16.9 °F 19.4 °F 80% 29.48 in 10.0 mi North 6.9 mph - N/A   Overcast
7:14 AM 24.8 °F 16.1 °F 19.4 °F 80% 29.49 in 10.0 mi NNW 8.1 mph - N/A   Overcast
7:34 AM 24.8 °F 14.0 °F 19.4 °F 80% 29.48 in 10.0 mi North 11.5 mph - N/A   Overcast
7:54 AM 24.8 °F 16.9 °F 17.6 °F 74% 29.48 in 10.0 mi North 6.9 mph - N/A   Overcast
8:14 AM 23.0 °F 13.1 °F 17.6 °F 80% 29.49 in 10.0 mi North 9.2 mph - N/A   Overcast
8:34 AM 23.0 °F 12.4 °F 17.6 °F 80% 29.47 in 10.0 mi NNE 10.4 mph - N/A   Overcast
8:54 AM 21.2 °F 10.9 °F 17.6 °F 86% 29.47 in 10.0 mi NNE 9.2 mph - N/A   Overcast
9:14 AM 21.2 °F 10.9 °F 15.8 °F 80% 29.50 in 10.0 mi North 9.2 mph - N/A   Overcast
9:34 AM 19.4 °F 9.5 °F 15.8 °F 86% 29.52 in 10.0 mi North 8.1 mph - N/A   Overcast
9:55 AM 19.4 °F 8.6 °F 14.0 °F 80% 29.53 in 10.0 mi North 9.2 mph - N/A   Overcast
10:14 AM 19.4 °F 8.6 °F 14.0 °F 80% 29.50 in 10.0 mi NE 9.2 mph - N/A   Mostly Cloudy
10:34 AM 19.4 °F 8.6 °F 12.2 °F 74% 29.51 in 10.0 mi North 9.2 mph - N/A   Scattered Clouds
10:55 AM 19.4 °F 8.6 °F 12.2 °F 74% 29.52 in 10.0 mi North 9.2 mph - N/A   Mostly Cloudy
11:14 AM 19.4 °F 7.9 °F 12.2 °F 74% 29.53 in 10.0 mi North 10.4 mph - N/A   Overcast
11:34 AM 19.4 °F 7.9 °F 12.2 °F 74% 29.54 in 10.0 mi North 10.4 mph - N/A   Overcast
11:55 AM 19.4 °F 8.6 °F 10.4 °F 68% 29.53 in 10.0 mi NNE 9.2 mph - N/A   Overcast
12:14 PM 19.4 °F 8.6 °F 10.4 °F 68% 29.53 in 10.0 mi North 9.2 mph - N/A   Overcast
12:34 PM 19.4 °F 9.5 °F 10.4 °F 68% 29.54 in 10.0 mi North 8.1 mph - N/A   Overcast
12:55 PM 19.4 °F 9.5 °F 12.2 °F 74% 29.53 in 10.0 mi North 8.1 mph - N/A   Overcast
1:14 PM 17.6 °F 7.3 °F 12.2 °F 79% 29.55 in 10.0 mi North 8.1 mph - N/A   Overcast
1:34 PM 17.6 °F 6.4 °F 10.4 °F 73% 29.55 in 10.0 mi North 9.2 mph - N/A   Overcast
1:55 PM 17.6 °F 5.7 °F 10.4 °F 73% 29.56 in 10.0 mi North 10.4 mph - N/A   Overcast
2:14 PM 17.6 °F 6.4 °F 10.4 °F 73% 29.56 in 10.0 mi North 9.2 mph - N/A   Overcast
2:34 PM 17.6 °F 7.3 °F 10.4 °F 73% 29.56 in 10.0 mi NNE 8.1 mph - N/A   Overcast
2:55 PM 17.6 °F 8.2 °F 8.6 °F 68% 29.57 in 10.0 mi NNE 6.9 mph - N/A   Overcast
3:14 PM 17.6 °F 8.2 °F 8.6 °F 68% 29.59 in 10.0 mi North 6.9 mph - N/A   Overcast
3:35 PM 15.8 °F 5.1 °F 8.6 °F 73% 29.60 in 10.0 mi East 8.1 mph - N/A   Overcast
3:54 PM 14.0 °F 1.2 °F 8.6 °F 79% 29.61 in 10.0 mi East 10.4 mph - N/A   Overcast
4:15 PM 14.0 °F 2.9 °F 8.6 °F 79% 29.63 in 7.0 mi East 8.1 mph - N/A Snow Light Snow
4:34 PM 12.2 °F 0.7 °F 6.8 °F 79% 29.65 in 5.0 mi East 8.1 mph - N/A Snow Light Snow
4:54 PM 12.2 °F 2.9 °F 6.8 °F 79% 29.65 in 1.8 mi East 5.8 mph - N/A Snow Light Snow
5:15 PM 12.2 °F 1.7 °F 6.8 °F 79% 29.65 in 1.8 mi East 6.9 mph - N/A Snow Light Snow
5:34 PM 10.4 °F -0.4 °F 5.0 °F 79% 29.65 in 2.5 mi East 6.9 mph - N/A Snow Light Snow
5:54 PM 10.4 °F 0.8 °F 3.2 °F 73% 29.66 in 4.0 mi East 5.8 mph - N/A Snow Light Snow
6:15 PM 10.4 °F -0.4 °F 3.2 °F 73% 29.67 in 4.0 mi East 6.9 mph - N/A Snow Light Snow
6:34 PM 8.6 °F -2.6 °F 3.2 °F 79% 29.68 in 4.0 mi East 6.9 mph - N/A Snow Light Snow
6:54 PM 8.6 °F -3.7 °F 3.2 °F 79% 29.68 in 4.0 mi East 8.1 mph - N/A Snow Light Snow
7:15 PM 8.6 °F -3.7 °F 3.2 °F 79% 29.69 in 5.0 mi East 8.1 mph - N/A Snow Light Snow
7:34 PM 8.6 °F -3.7 °F 3.2 °F 79% 29.69 in 4.0 mi East 8.1 mph - N/A Snow Light Snow
7:54 PM 8.6 °F -4.7 °F 3.2 °F 79% 29.69 in 3.0 mi East 9.2 mph - N/A Snow Light Snow
8:15 PM 8.6 °F -3.7 °F 1.4 °F 73% 29.71 in 4.0 mi East 8.1 mph - N/A Snow Light Snow
8:34 PM 6.8 °F -6.9 °F 1.4 °F 79% 29.71 in 5.0 mi East 9.2 mph - N/A Snow Light Snow
8:54 PM 6.8 °F -7.8 °F 1.4 °F 79% 29.72 in 7.0 mi ENE 10.4 mph - N/A Snow Light Snow
9:15 PM 6.8 °F -7.8 °F -0.4 °F 72% 29.74 in 7.0 mi ENE 10.4 mph - N/A Snow Light Snow
9:34 PM 5.0 °F -10.0 °F -0.4 °F 78% 29.75 in 7.0 mi ENE 10.4 mph - N/A Snow Light Snow
9:54 PM 5.0 °F -10.0 °F -0.4 °F 78% 29.75 in 7.0 mi ENE 10.4 mph - N/A Snow Light Snow
10:15 PM 5.0 °F -8.1 °F -0.4 °F 78% 29.78 in 5.0 mi ENE 8.1 mph - N/A Snow Light Snow
10:34 PM 5.0 °F -5.6 °F -0.4 °F 78% 29.80 in 7.0 mi NE 5.8 mph - N/A Snow Light Snow
10:54 PM 5.0 °F -9.1 °F -2.2 °F 72% 29.81 in 5.0 mi NNE 9.2 mph - N/A Snow Light Snow
11:14 PM 3.2 °F -11.3 °F -2.2 °F 78% 29.82 in 5.0 mi NNE 9.2 mph - N/A Snow Light Snow
11:34 PM 3.2 °F -11.3 °F -2.2 °F 78% 29.83 in 4.0 mi NNE 9.2 mph - N/A Snow Light Snow
11:54 PM 3.2 °F -9.1 °F -2.2 °F 78% 29.84 in 7.0 mi NNE 6.9 mph - N/A Snow Light Snow